Regional Weather Roundup
Issued by NWS New Orleans/Baton Rouge, LA

Home | Current Version | Previous Version | Graphics & Text | Print | Product List | Glossary On
Versions: 1 2 3 4 5 6 7 8 9 10 11 12 13 14 15 16 17 18 19 20 21 22 23 24 25 26 27 28 29 30 31 32 33 34 35 36 37 38 39 40 41 42 43 44 45 46 47 48 49 50
970
ASUS44 KLIX 241110
RWRLIX
NEW ORLEANS REGIONAL WEATHER ROUNDUP
NATIONAL WEATHER SERVICE NEW ORLEANS LA
600 AM CDT FRI OCT 24 2014

NOTE: "FAIR" INDICATES FEW OR NO CLOUDS BELOW 12,000 FEET WITH NO
      SIGNIFICANT WEATHER AND/OR OBSTRUCTIONS TO VISIBILITY.
      SKY/WX - SKY CONDITION AND SIGNIFICANT WEATHER.
      TMP - AIR TEMPERATURE.     DP    - DEWPOINT TEMPERATURE.
      RH  - RELATIVE HUMIDITY.   PRES  - PRESSURE.
      HI  - HEAT INDEX.          WCI   - WIND CHILL INDEX.

*  THESE STATIONS ARE NOT NWS OR FAA STATIONS AND ARE NOT UNDER
   NWS QUALITY CONTROL.

LAZ038-040-048-061>063-065>067-069-241200-
SOUTHEAST LOUISIANA

CITY           SKY/WX    TMP DP  RH WIND       PRES   REMARKS
N.O. AUDUBON     N/A     58  53  81 MISG        N/A
N.O. INTL ARPT PTCLDY    60  50  69 NE7       30.09R
N.O. LAKEFRONT CLEAR     62  52  69 NE15      30.09S
N.O. DOWNTOWN*   N/A     61  46  59 N6        30.09R
SLIDELL        PTCLDY    50  48  93 CALM      30.09R
BATON ROUGE    CLEAR     48  47  96 CALM      30.11R
BOOTHVILLE     CLEAR     67  56  67 N5        30.06S
BELLE CHASSE   MOCLDY    53  48  83 CALM      30.08S
BOGALUSA*        N/A     47  45  90 CALM      30.11S
NEW ROADS*       N/A     48  47  96 NW3       30.11S
GONZALES*        N/A     51  51 100 CALM      30.09S
HAMMOND*       CLEAR     48  46  93 CALM      30.11S
HOUMA*         CLEAR     53  51  95 CALM      30.09R
PORT FOURCHON* SUNNY     64  57  77 N9        30.10S

$$

MSZ070-080>082-241200-
SOUTHERN MISSISSIPPI

CITY           SKY/WX    TMP DP  RH WIND       PRES   REMARKS
MCCOMB         CLEAR     48  45  89 N5        30.11R
GULFPORT       PTCLDY    52  47  83 CALM      30.08S
BILOXI         MOCLDY    53  47  80 N1        30.08S
PASCAGOULA     PTCLDY    50  47  89 CALM      30.08R

$$

COASTAL OBSERVATIONS
LAKE AND NEARSHORE STATIONS

STATION/POSITION TIME  TEMP    WIND        PRES    WAVE
                       AIR SEA DIR/SP/G            HT/PER
                 (UTC) (F)     (DEG/KT/KT) (MB)    (FT/S)
PASCAGOULA       1100   55     360/  7/ 10 1017.9
WAVELAND YACHT   1100   57      30/  9/ 11 1018.0
GRAND ISLE       1100   66 73   40/  9/ 12 1018.5
SOUTHWEST PASS   1100   70 81              1017.8
NEW CANAL        1100   63 69   50/ 12/ 14 1019.1
SHELL BEACH      1100   63 66   30/ 12/ 14 1018.2

OFFSHORE STATIONS

STATION/POSITION TIME  TEMP    WIND        PRES    WAVE
                       AIR SEA DIR/SP/G            HT/PER
                 (UTC) (F)     (DEG/KT/KT) (MB)    (FT/S)
64 S DAUPHIN ISL 1041   71 78   10/ 10/ 14 1017.6    3/ 6

$$




USA.gov is the U.S. government's official web portal to all federal, state and local government web resources and services.